Date_and_time,latitude,longitude,wind_speed,RelWindDirFrom,WindDirFrom,air_pressure,air_temperature,relative_humidity,Temp,platform_speed_wrt_ground,air_pressure_at_mean_sea_level,platform_orientation
2018-08-30 00:00,50.630445,-96.9807616666667,6.7,9.0,154,986.52,20.1,56,18.98,0.0,1012.40,167.4
2018-08-30 00:10,50.6304433333333,-96.9807633333333,6.3,8.2,158,986.50,20.0,54,19.02,0.0,1012.38,167.4
2018-08-30 00:20,50.6304583333333,-96.9807666666667,6.0,7.9,165,986.49,20.3,51,18.95,0.0,1012.35,167.4
2018-08-30 00:30,50.6304516666667,-96.9807683333333,7.0,8.7,149,986.50,19.9,58,18.83,0.0,1012.36,167.4
2018-08-30 00:40,50.63045,-96.9807683333333,7.4,8.8,144,986.49,19.6,62,18.77,0.0,1012.37,167.4
2018-08-30 00:50,50.63045,-96.9807683333333,7.0,7.7,143,986.46,19.4,64,18.74,0.0,1012.36,167.4
2018-08-30 01:00,50.63045,-96.9807683333333,7.1,8.5,147,986.42,19.3,66,18.67,0.0,1012.32,360.0
2018-08-30 01:10,50.63045,-96.9807683333333,7.0,8.2,147,986.38,19.1,68,18.79,0.0,1012.29,360.0
2018-08-30 01:20,50.6304366666667,-96.9807433333333,7.2,7.8,145,986.37,19.1,66,18.89,0.0,1012.28,360.0
2018-08-30 01:30,50.6304433333333,-96.980755,7.6,8.5,144,986.41,19.0,66,18.92,0.0,1012.33,360.0
2018-08-30 01:40,50.6304416666667,-96.9807566666667,6.6,8.1,149,986.48,19.0,68,18.94,0.0,1012.42,360.0
2018-08-30 01:50,50.630445,-96.9808033333333,4.9,6.8,156,986.61,18.7,75,18.92,0.0,1012.57,360.0
2018-08-30 02:00,50.630445,-96.98077,5.1,6.9,156,986.71,18.7,74,18.89,0.0,1012.68,360.0
2018-08-30 02:10,50.6304433333333,-96.9807666666667,6.0,8.1,150,986.75,18.7,74,18.87,0.0,1012.70,360.0
2018-08-30 02:20,50.6304483333333,-96.9807666666667,6.7,8.1,148,986.79,18.9,70,18.87,0.0,1012.75,360.0
2018-08-30 02:30,50.6304466666667,-96.980765,5.5,7.5,156,986.80,18.7,78,18.87,0.0,1012.79,360.0
2018-08-30 02:40,50.6304583333333,-96.9807566666667,5.1,6.6,163,986.85,18.5,84,18.87,0.0,1012.86,360.0
2018-08-30 02:50,50.63045,-96.98075,5.6,7.2,162,986.79,18.3,84,18.87,0.0,1012.81,360.0
2018-08-30 03:00,50.63043,-96.9807566666667,6.2,8.3,160,986.64,18.4,85,18.87,0.0,1012.66,161.1
2018-08-30 03:10,50.630435,-96.9807583333333,4.8,6.8,173,986.66,18.1,90,18.86,0.0,1012.69,161.1
2018-08-30 03:20,50.6304383333333,-96.98076,5.5,7.2,176,986.64,17.5,89,18.85,0.0,1012.70,161.1
2018-08-30 03:30,50.63044,-96.98076,7.2,8.5,173,986.55,17.7,79,18.84,0.0,1012.61,161.1
2018-08-30 03:40,50.6304433333333,-96.9807616666667,7.3,8.3,177,986.49,17.7,73,18.82,0.0,1012.56,161.1
2018-08-30 03:50,50.630445,-96.980765,8.3,10.1,174,986.42,17.4,66,18.81,0.0,1012.49,161.1
2018-08-30 04:00,50.630445,-96.980765,8.8,10.4,177,986.43,17.4,58,18.80,0.0,1012.51,360.0
2018-08-30 04:10,50.630445,-96.980765,9.1,11.0,173,986.46,17.1,58,18.80,0.0,1012.54,360.0
2018-08-30 04:20,50.630445,-96.9807666666667,8.9,11.8,173,986.45,17.0,58,18.81,0.0,1012.54,360.0
2018-08-30 04:30,50.6304466666667,-96.980765,9.7,11.4,175,986.36,16.8,60,18.82,0.0,1012.47,360.0
2018-08-30 04:40,50.6304466666667,-96.980765,9.4,11.3,174,986.28,16.7,62,18.86,0.0,1012.41,360.0
2018-08-30 04:50,50.6304466666667,-96.9807633333333,7.5,9.2,176,986.21,16.5,65,18.86,0.0,1012.34,360.0
2018-08-30 05:00,50.6304466666667,-96.9807633333333,7.9,10.5,175,986.12,16.4,63,18.87,0.0,1012.26,360.0
2018-08-30 05:10,50.6304466666667,-96.9807633333333,9.9,11.7,174,986.03,16.7,60,18.87,0.0,1012.19,360.0
2018-08-30 05:20,50.6304483333333,-96.980765,10.3,11.8,172,985.94,16.7,60,18.86,0.0,1012.09,360.0
2018-08-30 05:30,50.6304683333333,-96.9807716666667,10.3,12.5,174,985.92,16.7,61,18.86,0.0,1012.06,360.0
2018-08-30 05:40,50.63045,-96.9807616666667,10.8,13.8,171,985.90,16.7,62,18.86,0.0,1012.06,360.0
2018-08-30 05:50,50.6304483333333,-96.9807766666667,12.2,14.5,171,985.91,16.7,60,18.86,0.0,1012.06,360.0
2018-08-30 06:00,50.63045,-96.980775,10.5,12.5,173,985.91,16.5,59,18.85,0.0,1012.09,360.0
2018-08-30 06:10,50.6304516666667,-96.9807716666667,9.5,11.3,172,985.95,16.1,58,18.83,0.0,1012.15,360.0
2018-08-30 06:20,50.6304516666667,-96.9807716666667,10.1,11.9,170,985.94,16.1,58,18.80,0.0,1012.14,360.0
2018-08-30 06:30,50.6304533333333,-96.98077,10.5,12.3,170,985.92,16.3,57,18.77,0.0,1012.13,360.0
2018-08-30 06:40,50.6304533333333,-96.9807716666667,9.9,11.8,171,985.87,16.3,57,18.74,0.0,1012.09,360.0
2018-08-30 06:50,50.63046,-96.98077,9.9,12.1,171,985.81,16.2,59,18.72,0.0,1012.03,360.0
2018-08-30 07:00,50.6304533333333,-96.980775,10.4,12.9,170,985.78,16.2,59,18.71,0.0,1011.99,345.5
2018-08-30 07:10,50.6304533333333,-96.980775,10.5,13.3,174,985.67,16.2,60,18.67,0.0,1011.87,345.5
2018-08-30 07:20,50.63045,-96.98077,10.9,14.1,173,985.50,16.2,60,18.65,0.0,1011.70,345.5
2018-08-30 07:30,50.6304483333333,-96.9807666666667,11.0,16.4,178,985.33,16.2,60,18.65,0.0,1011.53,345.5
2018-08-30 07:40,50.6304116666667,-96.9807533333333,12.8,16.1,178,985.22,16.4,60,18.65,0.0,1011.41,345.5
2018-08-30 07:50,50.6304283333333,-96.9807583333333,14.4,18.5,184,985.14,16.7,59,18.64,0.0,1011.32,345.5
2018-08-30 08:00,50.6304416666667,-96.9807666666667,14.7,19.8,187,985.06,16.7,60,18.63,0.0,1011.25,360.0
2018-08-30 08:10,50.63044,-96.9807766666667,14.3,18.3,187,984.94,16.5,61,18.60,0.0,1011.13,360.0
2018-08-30 08:20,50.6304383333333,-96.9807766666667,14.2,21.3,186,984.79,16.4,62,18.59,0.0,1010.98,360.0
2018-08-30 08:30,50.63043,-96.98077,15.5,20.9,187,984.74,16.3,63,18.57,0.0,1010.93,360.0
2018-08-30 08:40,50.6304366666667,-96.9807766666667,16.8,21.4,185,984.70,16.3,63,18.54,0.0,1010.89,360.0
2018-08-30 08:50,50.6304366666667,-96.980775,16.8,22.0,185,984.63,16.3,63,18.51,0.0,1010.82,360.0
2018-08-30 09:00,50.6304383333333,-96.9807783333333,15.9,20.1,186,984.64,16.2,64,18.49,0.0,1010.83,216.6
2018-08-30 09:10,50.63044,-96.9807783333333,15.8,21.2,187,984.62,16.2,65,18.46,0.0,1010.82,216.6
2018-08-30 09:20,50.63044,-96.9807766666667,16.0,21.1,187,984.61,16.1,65,18.43,0.0,1010.81,216.6
2018-08-30 09:30,50.63044,-96.9807766666667,16.3,21.6,188,984.56,16.1,66,18.41,0.0,1010.76,216.6
2018-08-30 09:40,50.63044,-96.9807766666667,16.5,22.0,188,984.52,16.0,66,18.40,0.0,1010.70,216.6
2018-08-30 09:50,50.63044,-96.9807783333333,15.5,22.9,187,984.48,16.0,67,18.40,0.0,1010.67,216.6
2018-08-30 10:00,50.63044,-96.9807766666667,17.0,22.9,187,984.35,16.0,67,18.39,0.0,1010.54,142.0
2018-08-30 10:10,50.63044,-96.980775,15.4,22.0,186,984.34,15.9,68,18.38,0.0,1010.53,142.0
2018-08-30 10:20,50.63044,-96.9807733333333,14.9,18.5,186,984.35,15.8,68,18.38,0.0,1010.55,142.0
2018-08-30 10:30,50.6304383333333,-96.9807733333333,13.4,18.4,186,984.31,15.8,68,18.36,0.0,1010.52,142.0
2018-08-30 10:40,50.6304383333333,-96.9807733333333,12.1,17.3,176,984.20,15.7,67,18.34,0.0,1010.41,142.0
2018-08-30 10:50,50.6304383333333,-96.9807733333333,12.4,15.3,173,984.09,15.4,69,18.33,0.0,1010.31,142.0
2018-08-30 11:00,50.6304383333333,-96.9807716666667,12.2,15.0,172,983.99,15.2,71,18.33,0.0,1010.22,270.0
2018-08-30 11:10,50.6304383333333,-96.9807733333333,12.8,15.5,172,983.88,15.0,72,18.32,0.0,1010.12,270.0
2018-08-30 11:20,50.6304233333333,-96.9807616666667,12.6,14.6,172,983.79,14.9,73,18.32,0.0,1010.04,270.0
2018-08-30 11:30,50.63044,-96.98079,12.9,15.8,172,983.76,14.9,72,18.32,0.0,1010.00,270.0
2018-08-30 11:40,50.6304383333333,-96.98078,14.7,17.8,170,983.68,15.0,72,18.31,0.0,1009.92,270.0
2018-08-30 11:50,50.6304366666667,-96.980775,15.1,18.3,169,983.59,15.1,73,18.30,0.0,1009.82,270.0
2018-08-30 12:00,50.6304266666667,-96.9807616666667,14.2,17.0,170,983.57,15.2,74,18.26,0.0,1009.80,137.0
2018-08-30 12:10,50.6304433333333,-96.98075,15.1,17.8,171,983.48,15.2,75,18.24,0.0,1009.72,137.0
2018-08-30 12:20,50.630445,-96.98076,15.7,19.8,171,983.45,15.2,76,18.22,0.0,1009.68,137.0
2018-08-30 12:30,50.6304466666667,-96.9807633333333,17.6,22.0,170,983.31,15.3,76,18.20,0.0,1009.54,137.0
2018-08-30 12:40,50.6304466666667,-96.9807616666667,17.5,21.9,173,983.28,15.3,77,18.19,0.0,1009.52,137.0
2018-08-30 12:50,50.6304466666667,-96.980765,16.4,20.2,173,983.27,15.4,78,18.18,0.0,1009.52,137.0
2018-08-30 13:00,50.6304483333333,-96.980765,15.3,18.9,171,983.21,15.4,79,18.18,0.0,1009.46,48.3
2018-08-30 13:10,50.6304483333333,-96.9807633333333,15.6,19.8,170,983.10,15.6,80,18.18,0.0,1009.35,48.3
2018-08-30 13:20,50.6304483333333,-96.9807633333333,15.7,19.7,170,982.95,15.8,80,18.18,0.0,1009.19,48.3
2018-08-30 13:30,50.6304483333333,-96.9807633333333,16.4,19.8,169,982.80,16.0,79,18.18,0.0,1009.02,48.3
2018-08-30 13:40,50.6304483333333,-96.9807633333333,15.9,20.4,165,982.57,16.1,82,18.18,0.0,1008.77,48.3
2018-08-30 13:50,50.6304483333333,-96.980765,15.9,20.2,163,982.42,16.1,85,18.17,0.0,1008.62,48.3
2018-08-30 14:00,50.6304483333333,-96.9807633333333,15.4,18.9,163,982.30,16.2,84,18.15,0.0,1008.48,48.3
2018-08-30 14:10,50.6304366666667,-96.98078,15.2,21.2,162,982.13,16.4,84,18.15,0.0,1008.30,48.3
2018-08-30 14:20,50.630435,-96.980775,15.7,20.3,162,981.87,16.7,81,18.15,0.0,1008.01,48.3
2018-08-30 14:30,50.630435,-96.9807766666667,16.6,21.6,157,981.57,16.7,84,18.14,0.0,1007.70,48.3
2018-08-30 14:40,50.630435,-96.980775,16.2,20.0,158,981.51,16.8,84,18.12,0.0,1007.64,48.3
2018-08-30 14:50,50.630435,-96.9807716666667,18.4,24.3,168,981.43,17.3,78,18.10,0.0,1007.53,48.3
2018-08-30 15:00,50.6304366666667,-96.9807716666667,18.8,23.2,168,981.33,17.7,74,18.09,0.0,1007.40,323.4
2018-08-30 15:10,50.6304366666667,-96.9807716666667,18.1,23.0,167,981.29,18.0,73,18.07,0.0,1007.34,323.4
2018-08-30 15:20,50.6304383333333,-96.9807716666667,18.2,22.9,167,981.13,18.3,72,18.07,0.0,1007.15,323.4
2018-08-30 15:30,50.6304383333333,-96.98077,16.6,21.1,163,981.00,18.4,73,18.08,0.0,1007.00,323.4
2018-08-30 15:40,50.6304383333333,-96.98077,18.1,25.1,163,980.81,18.6,71,18.10,0.0,1006.80,323.4
2018-08-30 15:50,50.6304416666667,-96.9807716666667,16.6,21.0,160,980.73,18.9,71,18.12,0.0,1006.71,323.4
2018-08-30 16:00,50.63043,-96.9807683333333,17.2,21.7,161,980.56,19.0,71,18.12,0.0,1006.52,360.0
2018-08-30 16:10,50.63043,-96.980765,16.9,21.8,161,980.44,19.0,71,18.12,0.0,1006.38,360.0
2018-08-30 16:20,50.6304316666667,-96.9807683333333,17.2,23.0,159,980.24,19.2,71,18.12,0.0,1006.16,360.0
2018-08-30 16:30,50.6304316666667,-96.9807666666667,18.1,22.8,153,980.12,19.0,74,18.13,0.0,1006.05,360.0
2018-08-30 16:40,50.6304316666667,-96.980765,19.2,23.7,150,979.95,19.1,75,18.16,0.0,1005.84,360.0
2018-08-30 16:50,50.6304316666667,-96.9807666666667,16.7,24.9,158,979.81,19.7,71,18.18,0.0,1005.66,360.0
2018-08-30 17:00,50.630445,-96.9807816666667,20.0,28.2,162,979.54,20.6,64,18.21,0.0,1005.32,246.4
2018-08-30 17:10,50.6304316666667,-96.9807733333333,19.5,26.4,160,979.35,20.6,65,18.23,0.0,1005.12,246.4
2018-08-30 17:20,50.6304416666667,-96.980775,19.9,27.3,154,979.13,20.5,66,18.23,0.0,1004.89,246.4
2018-08-30 17:30,50.6304416666667,-96.9807783333333,18.8,24.9,157,979.06,20.4,67,18.25,0.0,1004.81,246.4
2018-08-30 17:40,50.6304416666667,-96.98078,19.1,25.8,157,979.01,20.7,65,18.26,0.0,1004.73,246.4
2018-08-30 17:50,50.6304416666667,-96.98078,20.0,27.7,161,978.90,21.3,61,18.29,0.0,1004.59,246.4
2018-08-30 18:00,50.6304416666667,-96.9807783333333,24.2,31.9,165,978.60,21.9,57,18.32,0.0,1004.25,299.2
2018-08-30 18:10,50.6304416666667,-96.9807633333333,19.9,29.0,163,978.58,21.9,59,18.34,0.0,1004.23,299.2
2018-08-30 18:20,50.63044,-96.9807733333333,20.2,26.6,164,978.48,22.2,57,18.36,0.0,1004.12,299.2
2018-08-30 18:30,50.6304433333333,-96.9807766666667,23.3,30.1,166,978.26,22.8,54,18.38,0.0,1003.86,299.2
2018-08-30 18:40,50.6304516666667,-96.9808016666667,23.5,29.7,169,978.04,23.1,53,18.40,0.0,1003.60,299.2
2018-08-30 18:50,50.6304533333333,-96.9807816666667,23.3,31.6,169,977.95,23.2,53,18.43,0.0,1003.46,299.2
2018-08-30 19:00,50.630445,-96.9807783333333,22.0,29.5,164,977.85,23.0,55,18.45,0.0,1003.37,318.8
2018-08-30 19:10,50.630445,-96.9807766666667,23.2,30.2,169,977.70,23.3,53,18.46,0.0,1003.21,318.8
2018-08-30 19:20,50.63044,-96.9807916666667,25.9,31.5,176,977.47,23.7,51,18.49,0.0,1002.96,318.8
2018-08-30 19:30,50.630445,-96.9807866666667,25.6,33.9,172,977.42,24.0,51,18.51,0.0,1002.88,318.8
2018-08-30 19:40,50.6304383333333,-96.9807816666667,26.3,33.2,175,977.28,24.2,50,18.53,0.0,1002.70,318.8
2018-08-30 19:50,50.63044,-96.9807666666667,27.0,33.0,173,977.13,24.4,49,18.55,0.0,1002.51,318.8
2018-08-30 20:00,50.6304416666667,-96.9807666666667,24.8,32.5,177,977.03,24.6,49,18.58,0.0,1002.40,90.0
2018-08-30 20:10,50.6304433333333,-96.9807633333333,24.7,32.7,169,977.02,24.6,49,18.61,0.0,1002.38,90.0
2018-08-30 20:20,50.630445,-96.980765,22.7,32.3,175,977.03,24.7,49,18.62,0.0,1002.36,90.0
2018-08-30 20:30,50.6304466666667,-96.9807733333333,23.9,31.3,179,976.79,24.8,49,18.65,0.0,1002.10,90.0
2018-08-30 20:40,50.63045,-96.9807733333333,21.7,29.2,169,976.71,24.7,50,18.69,0.0,1002.01,90.0
2018-08-30 20:50,50.6304483333333,-96.9807716666667,23.7,31.3,176,976.44,24.9,48,18.71,0.0,1001.73,90.0
2018-08-30 21:00,50.63045,-96.9807716666667,23.7,31.4,174,976.30,25.1,49,18.73,0.0,1001.57,12.6
2018-08-30 21:10,50.6304483333333,-96.98077,24.2,30.5,167,976.12,24.9,50,18.77,0.0,1001.38,12.6
2018-08-30 21:20,50.6304483333333,-96.98077,22.3,27.6,167,975.98,25.0,50,18.80,0.0,1001.22,12.6
2018-08-30 21:30,50.630445,-96.9807766666667,24.7,29.7,167,975.80,25.0,50,18.82,0.0,1001.02,12.6
2018-08-30 21:40,50.6304483333333,-96.9807666666667,22.9,30.3,166,975.63,25.2,49,18.86,0.0,1000.83,12.6
2018-08-30 21:50,50.6304483333333,-96.9807683333333,21.4,30.2,171,975.68,25.3,50,18.88,0.0,1000.87,12.6
2018-08-30 22:00,50.6304466666667,-96.980765,20.8,30.8,173,975.74,25.7,48,18.91,0.0,1000.91,66.4
2018-08-30 22:10,50.6304466666667,-96.980765,24.1,30.2,173,975.62,25.8,47,18.94,0.0,1000.78,66.4
2018-08-30 22:20,50.6304466666667,-96.9807666666667,25.7,33.6,172,975.50,26.2,46,18.98,0.0,1000.64,66.4
2018-08-30 22:30,50.630445,-96.9807683333333,25.2,32.3,174,975.36,26.3,46,19.01,0.0,1000.50,66.4
2018-08-30 22:40,50.6304433333333,-96.980765,25.4,34.8,179,975.31,26.5,46,19.03,0.0,1000.43,66.4
2018-08-30 22:50,50.63045,-96.98077,26.0,33.4,174,975.04,26.4,46,19.05,0.0,1000.14,66.4
2018-08-30 23:00,50.6304416666667,-96.9807633333333,25.2,33.4,176,974.77,26.3,46,19.07,0.0,999.88,0.0
2018-08-30 23:10,50.6304366666667,-96.980765,24.9,35.6,174,974.52,26.3,46,19.08,0.0,999.62,0.0
2018-08-30 23:20,50.6304366666667,-96.980765,26.6,32.4,173,974.30,26.4,47,19.09,0.0,999.39,0.0
2018-08-30 23:30,50.6304383333333,-96.9807633333333,21.8,28.8,174,974.33,26.0,49,19.10,0.0,999.43,0.0
2018-08-30 23:40,50.6304383333333,-96.980765,23.9,34.9,174,974.05,26.1,49,19.12,0.0,999.14,0.0
